DW8534 Weather Reports


Display with metric or nautical units.
time (UTC)temp
F
wind
direction
speed
MPH
gust
MPH
rain 1hr
in
rain 24hr
in
rain mn
in
humidity
%
barometer
mb
20240302000040 65 148 5.0 0.0 0.00 0.00 0.00 59 1012.6
20240301234539 66 179 5.0 0.0 0.00 0.00 0.00 57 1012.4
20240301233038 66 171 6.0 0.0 0.00 0.00 0.00 58 1012.4
20240301231543 67 217 6.0 0.0 0.00 0.00 0.00 57 1012.5
20240301230037 68 234 5.0 0.0 0.00 0.00 0.00 57 1012.5
20240301224537 68 182 5.0 0.0 0.00 0.00 0.00 55 1012.6
20240301223036 68 178 6.0 0.0 0.00 0.00 0.00 55 1012.8
20240301221539 68 161 5.0 0.0 0.00 0.00 0.00 56 1012.7
20240301220034 68 173 6.0 0.0 0.00 0.00 0.00 56 1012.7
20240301214618 68 173 5.0 0.0 0.00 0.00 0.00 55 1012.8
20240301213030 67 188 4.0 0.0 0.00 0.00 0.00 58 1013.0
20240301211529 67 173 6.0 0.0 0.00 0.00 0.00 58 1013.3
20240301210026 66 184 5.0 0.0 0.00 0.00 0.00 60 1013.7
20240301204531 66 183 5.0 0.0 0.00 0.00 0.00 62 1013.8
20240301203027 65 209 5.0 0.0 0.00 0.00 0.00 62 1013.9
20240301201520 64 195 5.0 0.0 0.00 0.00 0.00 62 1014.0
20240301200028 64 157 6.0 0.0 0.00 0.00 0.00 62 1014.2
20240301194515 63 157 6.0 0.0 0.00 0.00 0.00 65 1014.5
20240301193028 62 167 6.0 0.0 0.00 0.00 0.00 67 1014.8
20240301191517 62 159 5.0 0.0 0.00 0.00 0.00 68 1015.1
20240301190008 61 175 6.0 0.0 0.00 0.00 0.00 67 1015.5
20240301184504 60 133 6.0 0.0 0.00 0.00 0.00 68 1015.6
20240301183004 59 161 6.0 0.0 0.00 0.00 0.00 70 1015.8
20240301181600 59 140 5.0 0.0 0.00 0.00 0.00 72 1016.1
20240301180101 58 168 5.0 0.0 0.00 0.00 0.00 74 1016.4
20240301174552 57 124 5.0 0.0 0.00 0.00 0.00 76 1016.4
20240301173049 55 162 5.0 0.0 0.00 0.00 0.00 78 1016.6
20240301171550 54 184 5.0 0.0 0.00 0.00 0.00 77 1016.7
20240301170043 53 156 6.0 0.0 0.00 0.00 0.00 80 1016.9
20240301164547 52 176 6.0 0.0 0.00 0.00 0.00 82 1017.1
20240301163036 51 148 5.0 0.0 0.00 0.00 0.00 84 1017.3
20240301161533 50 162 4.0 0.0 0.00 0.00 0.00 85 1017.4
20240301160031 49 176 5.0 0.0 0.00 0.00 0.00 87 1017.6
20240301154528 47 150 5.0 0.0 0.00 0.00 0.00 88 1017.6
20240301153027 48 178 5.0 0.0 0.00 0.00 0.00 88 1017.6
20240301151533 46 153 5.0 0.0 0.00 0.00 0.00 89 1017.7
20240301150025 46 154 4.0 0.0 0.00 0.00 0.00 90 1017.6
20240301144520 44 163 3.0 0.0 0.00 0.00 0.00 91 1017.7
20240301143018 44 175 4.0 0.0 0.00 0.00 0.00 91 1017.5
20240301141520 44 147 4.0 0.0 0.00 0.00 0.00 91 1017.5
20240301140016 43 141 3.0 0.0 0.00 0.00 0.00 92 1017.3
20240301134513 43 171 2.0 0.0 0.00 0.00 0.00 92 1017.2
20240301133016 43 144 3.0 0.0 0.00 0.00 0.00 92 1017.2
20240301131517 42 148 1.0 0.0 0.00 0.00 0.00 92 1017.2
20240301130012 42 148 1.0 0.0 0.00 0.00 0.00 92 1017.2
20240301124533 43 148 2.0 0.0 0.00 0.00 0.00 92 1017.3
20240301123009 43 152 2.0 0.0 0.00 0.00 0.00 92 1017.3
20240301121509 43 156 2.0 0.0 0.00 0.00 0.00 93 1017.2
20240301120009 43 152 1.0 0.0 0.00 0.00 0.00 93 1017.1
20240301114524 43 152 1.0 0.0 0.00 0.00 0.00 93 1017.0
20240301113007 43 153 2.0 0.0 0.00 0.00 0.00 93 1017.0
20240301111506 43 154 2.0 0.0 0.00 0.00 0.00 93 1016.9
20240301110007 43 153 1.0 0.0 0.00 0.00 0.00 93 1016.8
20240301104505 43 153 1.0 0.0 0.00 0.00 0.00 93 1016.7
20240301103005 43 153 1.0 0.0 0.00 0.00 0.00 93 1016.8
20240301101504 43 153 0.0 0.0 0.00 0.00 0.00 92 1016.8
20240301100009 43 153 0.0 0.0 0.00 0.00 0.00 92 1016.7
20240301094503 43 153 0.0 0.0 0.00 0.00 0.00 92 1016.9
20240301093000 43 153 0.0 0.0 0.00 0.00 0.00 92 1017.0
20240301091604 43 153 0.0 0.0 0.00 0.00 0.00 92 1017.3
20240301090102 43 153 0.0 0.0 0.00 0.00 0.00 92 1017.5
20240301084558 43 153 0.0 0.0 0.00 0.00 0.00 92 1017.8
20240301083057 43 153 0.0 0.0 0.00 0.00 0.00 92 1017.8
20240301081558 43 153 0.0 0.0 0.00 0.00 0.00 92 1017.8
20240301080104 43 153 1.0 0.0 0.00 0.00 0.00 91 1018.0
20240301074553 43 153 1.0 0.0 0.00 0.00 0.00 91 1018.2
20240301073058 43 153 1.0 0.0 0.00 0.00 0.00 91 1018.4
20240301071549 43 155 2.0 0.0 0.00 0.00 0.00 92 1018.4
20240301070109 43 152 2.0 0.0 0.00 0.00 0.00 91 1018.5
20240301064545 44 148 3.0 0.0 0.00 0.00 0.00 91 1018.9
20240301063048 44 129 3.0 0.0 0.00 0.00 0.00 91 1018.9
20240301061543 44 107 2.0 0.0 0.00 0.00 0.00 91 1019.4
20240301060039 44 103 0.0 0.0 0.00 0.00 0.05 90 1019.5
20240301054546 44 103 0.0 0.0 0.00 0.00 0.05 90 1019.8
20240301053038 44 103 1.0 0.0 0.00 0.00 0.05 89 1020.0
20240301051539 43 103 1.0 0.0 0.00 0.00 0.05 89 1020.1
20240301050037 43 103 2.0 0.0 0.00 0.00 0.05 88 1020.1
20240301044538 43 101 3.0 0.0 0.00 0.00 0.05 87 1020.1
20240301043036 43 113 3.0 0.0 0.00 0.00 0.05 87 1020.5
20240301041535 43 87 2.0 0.0 0.00 0.00 0.05 88 1020.5
20240301040044 43 84 3.0 0.0 0.00 0.00 0.05 88 1020.4
20240301034537 43 86 2.0 0.0 0.00 0.00 0.05 88 1020.5
20240301033034 43 86 2.0 0.0 0.00 0.00 0.05 88 1020.4
20240301031539 43 86 2.0 0.0 0.00 0.00 0.05 88 1020.3
20240301030037 43 82 3.0 0.0 0.00 0.00 0.05 87 1020.3
20240301024533 43 85 3.0 0.0 0.00 0.00 0.05 86 1020.3
20240301023034 43 74 3.0 0.0 0.00 0.00 0.05 86 1020.1
20240301021533 43 74 2.0 0.0 0.00 0.00 0.05 86 1020.0
20240301020032 43 79 3.0 0.0 0.00 0.00 0.05 86 1019.9
20240301014538 43 83 3.0 0.0 0.00 0.00 0.05 86 1020.0
20240301013030 44 88 2.0 0.0 0.00 0.00 0.04 86 1020.0
20240301011530 43 91 3.0 0.0 0.00 0.00 0.04 85 1020.0
20240301010029 44 85 3.0 0.0 0.00 0.00 0.04 86 1020.0
20240301004528 44 88 2.0 0.0 0.00 0.00 0.04 86 1020.4
20240301003027 44 84 2.0 0.0 0.00 0.00 0.04 85 1019.8
20240301001526 45 77 3.0 0.0 0.00 0.00 0.03 83 1020.4